FW6665 Weather Reports


time (UTC)temp
F
wind
direction
speed
knots
gust
knots
rain 1hr
in
rain 24hr
in
rain mn
in
humidity
%
barometer
mb
20260901112705 71 178 0.9 6.1 0.00 0.00 0.00 49 1018.0
20260901111704 71 196 1.7 6.1 0.00 0.00 0.00 49 1018.1
20260901111205 70 183 1.7 6.1 0.00 0.00 0.00 50 1018.0
20260901110704 70 219 1.7 6.1 0.00 0.00 0.00 50 1017.9
20260901110204 69 172 1.7 10.4 0.00 0.00 0.00 50 1018.1
20260901105704 69 248 1.7 10.4 0.00 0.00 0.00 50 1018.1
20260901105205 69 157 1.7 10.4 0.00 0.00 0.00 51 1018.0
20260901104704 69 206 4.3 6.1 0.00 0.00 0.00 50 1018.2
20260901104205 69 248 1.7 7.8 0.00 0.00 0.00 51 1018.1
20260901103705 69 183 1.7 7.8 0.00 0.00 0.00 51 1018.2
20260901103204 69 210 2.6 6.1 0.00 0.00 0.00 52 1018.3
20260901102705 69 197 1.7 5.2 0.00 0.00 0.00 53 1018.2
20260901101704 69 183 0.9 5.2 0.00 0.00 0.00 53 1018.4
20260901101204 69 206 1.7 5.2 0.00 0.00 0.00 54 1018.4
20260901100707 69 186 1.7 5.2 0.00 0.00 0.00 56 1018.5
20260901100203 68 124 1.7 5.2 0.00 0.00 0.00 57 1018.6
20260901095704 68 169 1.7 4.3 0.00 0.00 0.00 58 1018.5
20260901095204 67 207 0.9 6.1 0.00 0.00 0.00 59 1018.5
20260901094704 67 224 1.7 7.8 0.00 0.00 0.00 60 1018.7
20260901094205 66 227 3.5 7.8 0.00 0.00 0.00 60 1018.7
20260901093204 66 209 1.7 7.8 0.00 0.00 0.00 61 1018.6
20260901092704 65 183 0.9 7.8 0.00 0.00 0.00 63 1018.6
20260901092205 65 272 2.6 7.8 0.00 0.00 0.00 62 1018.6
20260901091705 65 252 2.6 7.8 0.00 0.00 0.00 64 1018.7
20260901091204 65 254 2.6 4.3 0.00 0.00 0.00 64 1018.6
20260901090207 64 193 0.9 3.5 0.00 0.00 0.00 69 1018.6
20260901085705 64 197 1.7 3.5 0.00 0.00 0.00 70 1018.6
20260901085204 63 237 2.6 2.6 0.00 0.00 0.00 70 1018.6
20260901084204 62 235 0.9 2.6 0.00 0.00 0.00 74 1018.6
20260901083704 62 237 0.9 3.5 0.00 0.00 0.00 74 1018.5
20260901083203 61 237 1.7 3.5 0.00 0.00 0.00 74 1018.5
20260901082730 61 237 0.0 3.5 0.00 0.00 0.00 75 1018.5
20260901082209 61 237 0.0 2.6 0.00 0.00 0.00 77 1018.5
20260901081205 60 237 0.9 3.5 0.00 0.00 0.00 77 1018.6
20260901080710 60 237 0.9 3.5 0.00 0.00 0.00 77 1018.5
20260901080205 59 237 0.9 2.6 0.00 0.00 0.00 78 1018.4
20260901075704 59 237 0.9 3.5 0.00 0.00 0.00 78 1018.4
20260901075205 59 237 0.9 3.5 0.00 0.00 0.00 78 1018.4
20260901074707 59 237 0.9 3.5 0.00 0.00 0.00 78 1018.3
20260901073705 58 237 0.9 2.6 0.00 0.00 0.00 78 1018.2
20260901072705 58 237 0.9 3.5 0.00 0.00 0.00 79 1018.3
20260901072205 58 237 0.9 3.5 0.00 0.00 0.00 78 1018.2
20260901071705 58 237 0.9 1.7 0.00 0.00 0.00 78 1018.2
20260901070705 57 238 0.0 1.7 0.00 0.00 0.00 77 1018.2
20260901070205 57 238 0.0 1.7 0.00 0.00 0.00 77 1018.2
20260901064704 56 238 0.0 0.9 0.00 0.00 0.00 77 1018.0
20260901064203 56 238 0.0 1.7 0.00 0.00 0.00 77 1018.0
20260901063705 56 238 0.0 1.7 0.00 0.00 0.00 77 1018.0
20260901063205 56 238 0.0 1.7 0.00 0.00 0.00 77 1017.9
20260901062705 56 238 0.0 0.9 0.00 0.00 0.00 76 1017.9
20260901062204 56 238 0.0 0.9 0.00 0.00 0.00 76 1017.9
20260901061704 56 238 0.0 0.9 0.00 0.00 0.00 76 1017.9
20260901060706 55 238 0.0 0.9 0.00 0.00 0.00 76 1017.9
20260901060205 55 238 0.0 0.9 0.00 0.00 0.00 76 1017.8
20260901055705 55 238 0.0 0.9 0.00 0.00 0.00 76 1017.7
20260901055204 55 238 0.0 0.9 0.00 0.00 0.00 76 1017.7
20260901054705 55 238 0.0 0.9 0.00 0.00 0.00 76 1017.7
20260901054204 55 238 0.0 0.9 0.00 0.00 0.00 76 1017.7
20260901053704 55 238 0.0 0.9 0.00 0.00 0.00 76 1017.6
20260901053225 55 238 0.0 0.9 0.00 0.00 0.00 76 1017.6
20260901051704 55 238 0.0 0.9 0.00 0.00 0.00 77 1017.6
20260901051204 55 238 0.0 0.9 0.00 0.00 0.00 77 1017.5
20260901050704 55 238 0.0 0.9 0.00 0.00 0.00 77 1017.4
20260901050204 55 238 0.0 0.9 0.00 0.00 0.00 77 1017.4
20260901044705 55 238 0.0 0.9 0.00 0.00 0.00 78 1017.3
20260901044205 55 238 0.0 0.9 0.00 0.00 0.00 78 1017.3
20260901043705 55 238 0.0 0.9 0.00 0.00 0.00 78 1017.4
20260901043204 55 238 0.0 0.9 0.00 0.00 0.00 78 1017.4
20260901042704 55 238 0.0 0.0 0.00 0.00 0.00 78 1017.4
20260901042204 55 238 0.0 0.0 0.00 0.00 0.00 78 1017.4
20260901041705 55 238 0.0 0.9 0.00 0.00 0.00 78 1017.2
20260901041205 55 238 0.0 0.9 0.00 0.00 0.00 78 1017.1
20260901040705 56 238 0.0 0.9 0.00 0.00 0.00 78 1017.1
20260901040203 56 238 0.0 0.9 0.00 0.00 0.00 78 1017.1
20260901035206 56 238 0.0 0.9 0.00 0.00 0.00 78 1017.1
20260901034705 56 238 0.0 0.9 0.00 0.00 0.00 79 1017.0
20260901033705 56 238 0.0 1.7 0.00 0.00 0.00 78 1017.1
20260901033204 56 238 0.0 1.7 0.00 0.00 0.00 78 1017.0
20260901032704 56 238 0.0 1.7 0.00 0.00 0.00 78 1017.0
20260901032203 56 238 0.0 0.9 0.00 0.00 0.00 78 1017.0
20260901031705 56 238 0.0 0.9 0.00 0.00 0.00 78 1017.0
20260901031204 57 238 0.0 0.9 0.00 0.00 0.00 78 1017.0
20260901030704 57 238 0.0 0.9 0.00 0.00 0.00 78 1017.0
20260901030204 57 238 0.0 0.9 0.00 0.00 0.00 78 1017.0
20260901025205 57 238 0.0 0.9 0.00 0.00 0.00 78 1017.0
20260901024705 57 238 0.0 0.0 0.00 0.00 0.00 78 1016.9
20260901024203 58 238 0.0 0.0 0.00 0.00 0.00 77 1017.0
20260901023705 58 238 0.0 0.9 0.00 0.00 0.00 77 1017.0
20260901023204 58 238 0.0 0.9 0.00 0.00 0.00 77 1016.9
20260901022708 58 238 0.0 0.9 0.00 0.00 0.00 77 1016.9
20260901022204 58 238 0.0 0.9 0.00 0.00 0.00 76 1016.9
20260901021704 58 238 0.0 0.9 0.00 0.00 0.00 76 1017.0
20260901021204 58 238 0.0 0.9 0.00 0.00 0.00 76 1017.0
20260901020704 59 238 0.0 0.9 0.00 0.00 0.00 76 1016.9
20260901015704 59 238 0.0 0.9 0.00 0.00 0.00 75 1016.9
20260901015204 59 238 0.0 0.9 0.00 0.00 0.00 75 1016.8
20260901014704 60 238 0.0 1.7 0.00 0.00 0.00 74 1016.9
20260901013706 60 238 0.0 3.5 0.00 0.00 0.00 74 1016.7
20260901013205 60 238 0.9 3.5 0.00 0.00 0.00 74 1016.8
20260901012704 60 238 0.9 3.5 0.00 0.00 0.00 74 1016.7
20260901011204 60 238 0.9 1.7 0.00 0.00 0.00 72 1016.8
20260901010704 61 238 0.0 4.3 0.00 0.00 0.00 72 1016.6
20260901010204 61 238 0.0 4.3 0.00 0.00 0.00 71 1016.6
20260901005704 61 238 0.9 4.3 0.00 0.00 0.00 71 1016.7
20260901005204 61 240 1.7 7.8 0.00 0.00 0.00 71 1016.6
20260901003704 62 241 1.7 7.8 0.00 0.00 0.00 70 1016.6
20260901002706 62 274 1.7 6.1 0.00 0.00 0.00 70 1016.6
20260901002204 62 243 2.6 4.3 0.00 0.00 0.00 70 1016.6
20260901001709 62 231 1.7 4.3 0.00 0.00 0.00 70 1016.5
20260901000704 62 241 1.7 4.3 0.00 0.00 0.00 69 1016.5
20260901000204 63 248 1.7 4.3 0.00 0.00 0.00 70 1016.4
20260831235704 63 238 0.9 4.3 0.00 0.00 0.00 69 1016.4
20260831235205 63 238 0.9 4.3 0.00 0.00 0.00 69 1016.4
20260831234704 63 237 1.7 4.3 0.00 0.00 0.00 69 1016.4
20260831234204 63 241 1.7 4.3 0.00 0.00 0.00 69 1016.3
20260831233704 63 241 0.9 4.3 0.00 0.00 0.00 69 1016.3
20260831233204 63 241 1.7 6.1 0.00 0.00 0.00 69 1016.2
20260831232205 63 241 1.7 3.5 0.00 0.00 0.00 69 1016.2
20260831231706 63 244 0.9 3.5 0.00 0.00 0.00 69 1016.2
20260831231203 63 245 1.7 3.5 0.00 0.00 0.00 68 1016.2
20260831230705 63 245 1.7 3.5 0.00 0.00 0.00 68 1016.1
20260831230204 63 248 0.9 5.2 0.00 0.00 0.00 68 1016.1
20260831225704 64 250 0.0 5.2 0.00 0.00 0.00 67 1016.0
20260831225204 64 250 0.0 5.2 0.00 0.00 0.00 67 1016.1
20260831224704 64 250 0.0 5.2 0.00 0.00 0.00 67 1016.2
20260831224204 64 250 2.6 5.2 0.00 0.00 0.00 66 1016.2
20260831223704 64 254 1.7 5.2 0.00 0.00 0.00 66 1016.1
20260831223205 64 255 0.9 6.1 0.00 0.00 0.00 66 1016.1
20260831222706 64 250 1.7 6.1 0.00 0.00 0.00 66 1016.0
20260831221704 64 237 1.7 6.1 0.00 0.00 0.00 66 1016.0
20260831221204 64 255 2.6 4.3 0.00 0.00 0.00 67 1016.0
20260831220724 64 234 2.6 4.3 0.00 0.00 0.00 67 1016.0
20260831220204 65 248 1.7 4.3 0.00 0.00 0.00 66 1015.9
20260831215705 65 223 1.7 4.3 0.00 0.00 0.00 66 1015.9
20260831215204 65 219 1.7 6.1 0.00 0.00 0.00 66 1015.9
20260831214704 65 203 1.7 6.1 0.00 0.00 0.00 65 1015.9
20260831214204 65 234 1.7 9.6 0.00 0.00 0.00 65 1015.8
20260831213704 65 240 2.6 9.6 0.00 0.00 0.00 65 1015.7
20260831212205 65 250 4.3 6.1 0.00 0.00 0.00 65 1015.7
20260831211205 65 241 1.7 3.5 0.00 0.00 0.00 67 1015.6
20260831210704 65 240 1.7 3.5 0.00 0.00 0.00 67 1015.6
20260831210205 66 241 0.9 4.3 0.00 0.02 0.00 67 1015.5
20260831205704 66 240 0.9 4.3 0.00 0.04 0.00 67 1015.3
20260831205204 66 240 0.9 6.1 0.00 0.04 0.00 66 1015.3
20260831204705 66 240 0.9 6.1 0.00 0.04 0.00 66 1015.2
20260831204204 66 237 1.7 7.8 0.00 0.04 0.00 65 1015.1
20260831203704 66 259 1.7 7.8 0.00 0.04 0.00 65 1015.0
20260831202706 67 233 2.6 5.2 0.00 0.04 0.00 65 1014.9
20260831202204 67 250 2.6 5.2 0.00 0.04 0.00 65 1014.8
20260831201704 67 233 1.7 5.2 0.00 0.04 0.00 65 1014.7
20260831201204 67 228 2.6 5.2 0.00 0.04 0.00 64 1014.7
20260831200706 67 241 1.7 5.2 0.00 0.04 0.00 64 1014.7
20260831200204 67 235 2.6 7.8 0.00 0.04 0.00 64 1014.5
20260831195703 67 213 1.7 7.8 0.00 0.04 0.00 64 1014.5
20260831195204 68 235 3.5 7.8 0.00 0.04 0.00 64 1014.5
20260831194704 68 237 1.7 7.8 0.00 0.04 0.00 64 1014.4
20260831194205 68 237 2.6 9.6 0.00 0.04 0.00 63 1014.2
20260831193709 68 251 3.5 9.6 0.00 0.04 0.00 63 1014.3
20260831192704 69 228 3.5 10.4 0.00 0.04 0.00 63 1014.2
20260831191704 69 259 3.5 8.7 0.00 0.04 0.00 63 1013.9
20260831191204 69 238 4.3 9.6 0.00 0.04 0.00 63 1013.9
20260831190704 69 285 2.6 9.6 0.00 0.04 0.00 63 1013.9
20260831185703 69 244 3.5 10.4 0.00 0.04 0.00 63 1013.7
20260831185205 69 243 1.7 10.4 0.00 0.04 0.00 63 1013.7
20260831184704 69 233 4.3 10.4 0.00 0.04 0.00 63 1013.7
20260831184204 70 228 4.3 11.3 0.00 0.04 0.00 63 1013.6
20260831183704 70 235 3.5 11.3 0.00 0.04 0.00 62 1013.5
20260831183204 70 231 4.3 11.3 0.00 0.04 0.00 62 1013.5
20260831182704 70 230 2.6 11.3 0.00 0.04 0.00 63 1013.4
20260831182204 70 216 3.5 4.3 0.00 0.04 0.00 65 1013.2
20260831181704 70 238 1.7 4.3 0.00 0.04 0.00 65 1013.1
20260831181205 70 238 1.7 4.3 0.00 0.04 0.00 64 1013.1
20260831180705 70 240 1.7 4.3 0.00 0.04 0.00 64 1013.0
20260831180204 70 238 0.9 5.2 0.00 0.04 0.00 64 1012.9
20260831174704 70 241 1.7 4.3 0.00 0.04 0.00 64 1012.7
20260831174203 70 237 0.9 4.3 0.00 0.04 0.00 64 1012.7
20260831173714 70 237 1.7 4.3 0.00 0.04 0.00 64 1012.7
20260831173204 70 237 1.7 3.5 0.00 0.04 0.00 64 1012.6
20260831172704 70 237 1.7 3.5 0.00 0.04 0.00 64 1012.6
20260831172204 70 237 1.7 3.5 0.00 0.04 0.00 64 1012.6
20260831171704 70 237 1.7 5.2 0.00 0.04 0.00 64 1012.5
20260831171228 70 237 0.9 5.2 0.00 0.04 0.00 65 1012.4
20260831170704 70 237 0.0 5.2 0.00 0.04 0.00 65 1012.4
20260831170204 70 247 1.7 4.3 0.00 0.04 0.00 65 1012.3
20260831165203 70 255 1.7 5.2 0.00 0.04 0.00 65 1012.2
20260831164704 70 255 1.7 5.2 0.00 0.04 0.00 65 1012.2
20260831163705 71 268 1.7 5.2 0.00 0.04 0.00 64 1012.1
20260831162705 71 217 1.7 6.1 0.00 0.04 0.00 66 1012.0
20260831162204 70 283 1.7 6.1 0.00 0.04 0.00 67 1012.1
20260831161705 70 254 0.9 6.1 0.00 0.04 0.00 66 1012.0
20260831160705 70 247 2.6 6.1 0.00 0.04 0.00 65 1012.0
20260831160207 70 286 3.5 7.8 0.00 0.04 0.00 65 1012.0
20260831155705 70 255 1.7 7.8 0.00 0.04 0.00 65 1011.9
20260831155204 70 228 0.9 5.2 0.00 0.04 0.00 66 1011.7
20260831154704 70 240 1.7 5.2 0.00 0.04 0.00 67 1011.7
20260831154204 70 233 1.7 5.2 0.00 0.04 0.00 67 1011.6
20260831153205 70 228 1.7 7.8 0.00 0.04 0.00 67 1011.6
20260831152707 70 240 1.7 7.8 0.00 0.04 0.00 67 1011.6
20260831152203 70 285 0.9 7.8 0.00 0.04 0.00 67 1011.5
20260831151704 70 259 0.9 7.8 0.00 0.04 0.00 65 1011.4
20260831151204 71 265 1.7 13.0 0.00 0.04 0.00 64 1011.3
20260831144704 74 214 5.2 13.9 0.00 0.04 0.00 54 1011.1
20260831144205 73 234 3.5 13.0 0.00 0.04 0.00 55 1011.0
20260831142704 72 245 4.3 11.3 0.00 0.04 0.00 57 1010.9
20260831142207 72 286 4.3 10.4 0.00 0.04 0.00 56 1010.8
20260831141704 73 251 3.5 10.4 0.00 0.04 0.00 58 1010.8
20260831141205 73 224 4.3 10.4 0.00 0.04 0.00 56 1010.7
20260831140704 74 188 2.6 10.4 0.00 0.04 0.00 56 1010.7
20260831140204 73 290 2.6 12.2 0.00 0.04 0.00 56 1010.5
20260831135709 73 228 2.6 12.2 0.00 0.04 0.00 58 1010.6
20260831135203 73 207 7.0 10.4 0.00 0.04 0.00 56 1010.7
20260831134704 72 257 5.2 10.4 0.00 0.04 0.00 58 1010.6
20260831134205 72 251 4.3 9.6 0.00 0.04 0.00 60 1010.6
20260831132704 71 244 4.3 11.3 0.00 0.04 0.00 62 1010.4
20260831132208 70 190 3.5 11.3 0.00 0.04 0.00 63 1010.3
20260831131705 70 250 2.6 11.3 0.00 0.04 0.00 62 1010.1
20260831131207 70 275 5.2 10.4 0.00 0.04 0.00 62 1010.2
20260831130707 71 279 4.3 10.4 0.00 0.04 0.00 62 1010.1
20260831125704 71 251 5.2 12.2 0.00 0.04 0.00 60 1009.9
20260831125208 71 252 2.6 12.2 0.00 0.04 0.00 60 1009.8
20260831124705 71 257 2.6 12.2 0.00 0.04 0.00 60 1009.8
20260831124208 71 247 4.3 7.8 0.00 0.04 0.00 61 1009.8
20260831123804 71 251 3.5 7.8 0.00 0.04 0.00 60 1009.7
20260831123204 71 303 2.6 10.4 0.00 0.04 0.00 60 1009.5
20260831122204 71 197 3.5 13.9 0.00 0.04 0.00 61 1009.5
20260831121733 71 233 3.5 13.9 0.00 0.04 0.00 60 1009.5
20260831121203 71 247 2.6 13.9 0.00 0.04 0.00 60 1009.2
20260831120704 71 252 5.2 13.9 0.00 0.04 0.00 59 1009.3
20260831120204 71 212 4.3 12.2 0.00 0.04 0.00 60 1009.2
20260831115706 70 234 3.5 12.2 0.00 0.04 0.00 63 1009.2
20260831115205 69 200 2.6 11.3 0.00 0.04 0.00 63 1009.2
20260831114704 70 204 6.1 11.3 0.00 0.04 0.00 61 1009.1
20260831114204 70 268 3.5 10.4 0.00 0.04 0.00 62 1009.1
20260831113732 69 231 1.7 10.4 0.00 0.04 0.00 64 1008.9
20260831113204 69 247 3.5 11.3 0.00 0.04 0.00 62 1009.0